This is the latest recevied weather packets stored in our database for station/object EA6AMI-5. If no packets are shown the sender has not sent any weather packets the latest 10 day(s).
| Time | Temp. | Humidity | Pressure | Rain* | Wind** | Luminosity | Snow |
|---|---|---|---|---|---|---|---|
| 1787667483 | 32.78° C | 34% | 1013.3 hPa | 0 mm | - | 531 W/m² | - |
| 1787666944 | 32.78° C | 35% | 1013.4 hPa | 0 mm | - | 549 W/m² | - |
| 1787666404 | 32.78° C | 35% | 1013.5 hPa | 0 mm | - | 575 W/m² | - |
| 1787666043 | 33.33° C | 34% | 1013.8 hPa | 0 mm | - | 593 W/m² | - |
| 1787665504 | 32.78° C | 35% | 1013.5 hPa | 0 mm | - | 616 W/m² | - |
| 1787664963 | 32.78° C | 36% | 1013.5 hPa | 0 mm | - | 629 W/m² | - |
| 1787664424 | 32.78° C | 36% | 1013.6 hPa | 0 mm | - | 646 W/m² | - |
| 1787663884 | 32.22° C | 35% | 1013.6 hPa | 0 mm | - | 664 W/m² | - |
| 1787663344 | 32.22° C | 35% | 1013.5 hPa | 0 mm | - | 681 W/m² | - |
| 1787662803 | 32.22° C | 35% | 1013.7 hPa | 0 mm | - | 694 W/m² | - |
| 1787662443 | 32.78° C | 35% | 1013.9 hPa | 0 mm | - | 701 W/m² | - |
| 1787661904 | 32.22° C | 36% | 1014 hPa | 0 mm | - | 713 W/m² | - |
| 1787661363 | 32.22° C | 36% | 1014 hPa | 0 mm | - | 718 W/m² | - |
| 1787660824 | 32.22° C | 37% | 1013.9 hPa | 0 mm | - | 728 W/m² | - |
| 1787660283 | 32.22° C | 36% | 1014.1 hPa | 0 mm | - | 730 W/m² | - |
| 1787659743 | 32.22° C | 37% | 1014 hPa | 0 mm | - | 736 W/m² | - |
| 1787659204 | 32.22° C | 37% | 1014 hPa | 0 mm | - | 731 W/m² | - |
| 1787658885 | 31.67° C | 37% | 1014.1 hPa | 0 mm | - | 725 W/m² | - |
| 1787658304 | 32.22° C | 38% | 1014.1 hPa | 0 mm | - | 719 W/m² | - |
| 1787657764 | 32.78° C | 36% | 1014.2 hPa | 0 mm | - | 716 W/m² | - |
| 1787657224 | 31.67° C | 36% | 1014.3 hPa | 0 mm | - | 721 W/m² | - |
| 1787656683 | 32.22° C | 35% | 1014.1 hPa | 0 mm | - | 724 W/m² | - |
| 1787656143 | 31.67° C | 36% | 1014.2 hPa | 0 mm | - | 727 W/m² | - |
| 1787655603 | 31.67° C | 34% | 1014.4 hPa | 0 mm | - | 728 W/m² | - |
| 1787655244 | 31.67° C | 34% | 1014.3 hPa | 0 mm | - | 726 W/m² | - |
* Rain latest hour (hover to see other rain measurements)
** Current wind speed in m/s (hover to see current wind gust speed)